Temp
15 16 16 17 18 19 20 20 21 21 20 21 20 20 20 20 20 20 21 21 21 22 22 22 22 22 22 22 23 23 23 24 24 22 22 23 23 23 23 24 24 23 23 23 23 23 22 22 22 22 23 22 19 19 20 18 18 21 23 22 22 21 22 22 23 22 22 23 24 23 22 22 24 23 22 21 22 23 21 22 22 21 20 21 20 18 18 18
15 16 17 17 18 19 20 20 21 21 21 21 20 20 20 20 20 20 21 21 21 21 22 22 22 22 22 22 22 23 23 24 24 23 22 22 23 23 23 24 24 23 23 23 23 23 23 22 20 21 22 22 19 20 21 19 19 21 21 22 22 22 22 22 22 23 22 23 23 22 21 20 22 22 21 22 24 23 22 22 22 22 23 21 18 17 18 17
16 17 17 18 18 19 20 20 21 21 21 20 20 20 20 20 20 21 21 21 21 21 21 22 22 22 22 22 22 22 23 23 24 23 22 22 23 23 23 24 23 23 23 23 23 22 23 22 21 21 22 22 20 20 23 21 20 20 20 23 23 22 22 20 21 22 22 21 22 22 20 20 21 20 21 22 22 22 22 22 21 22 23 20 15 12 14 14
17 17 18 18 19 19 20 20 20 21 21 20 19 20 20 20 21 21 21 21 21 21 21 21 21 21 21 22 22 22 23 23 24 23 22 23 23 23 24 24 23 23 23 23 23 22 22 22 21 22 23 23 20 20 22 21 20 20 20 24 22 19 21 22 21 22 21 20 21 21 19 20 21 19 20 21 22 23 23 21 21 21 20 17 13 10 10 10
16 16 17 18 18 19 19 20 20 20 20 19 19 20 20 20 20 20 20 20 21 21 21 21 21 21 21 21 22 22 23 23 24 23 23 23 23 23 24 24 23 23 22 23 22 22 22 21 21 22 22 23 21 21 21 19 19 21 21 21 20 18 21 22 21 21 20 19 20 20 20 21 20 19 21 21 22 23 22 19 17 16 14 13 12 10 9 8
16 16 16 18 18 18 19 19 19 19 19 19 19 20 20 20 20 20 20 20 20 20 21 21 21 21 21 21 21 22 23 23 24 23 24 23 23 23 24 24 23 22 22 22 22 22 22 21 21 22 22 22 22 22 21 18 19 22 21 19 19 18 20 21 20 20 19 19 21 21 20 19 20 21 21 20 22 21 17 14 12 11 10 9 9 8 8 7
18 17 17 18 19 18 18 18 18 18 18 18 19 19 19 19 19 20 20 20 20 20 20 21 21 21 21 21 21 21 22 23 23 23 23 23 23 23 23 23 23 22 22 22 22 21 21 22 22 21 22 22 21 21 20 19 19 21 22 21 19 18 20 21 20 19 18 20 21 20 19 19 21 21 19 20 20 16 11 10 9 9 8 8 8 7 7 7
17 18 18 19 19 18 18 18 18 18 18 18 18 18 18 18 19 19 19 20 20 20 20 20 20 20 21 21 21 21 21 22 23 22 23 23 23 23 23 23 22 22 21 21 21 21 21 22 22 20 22 22 21 21 19 20 21 20 21 21 20 19 20 20 19 19 18 19 19 18 20 20 20 19 19 20 17 12 10 9 8 8 8 7 7 7 6 6
16 17 18 19 18 17 17 17 17 17 17 17 17 17 18 18 18 19 19 19 19 20 20 20 20 20 20 20 20 21 22 22 22 22 22 22 23 23 23 22 22 22 21 21 21 21 21 22 21 21 22 21 20 21 20 21 22 21 21 21 20 20 20 20 20 20 20 19 18 19 21 20 18 18 20 18 14 11 10 9 8 9 9 7 7 6 6 6
14 16 18 18 17 17 17 17 16 16 16 17 17 17 17 18 18 18 18 19 19 19 19 20 20 20 20 20 20 21 22 22 22 22 22 22 22 22 22 22 22 22 21 20 20 21 21 21 20 19 21 21 20 20 19 21 21 20 20 20 20 20 19 19 20 20 19 19 19 20 22 20 17 19 21 17 12 11 11 10 8 8 8 7 7 6 6 6
13 15 17 18 17 16 16 16 16 16 16 16 16 16 17 17 17 18 18 18 19 19 19 19 19 19 20 20 21 22 22 21 21 21 22 21 22 22 22 22 22 22 21 20 20 20 21 21 18 18 21 21 20 19 19 20 19 19 19 20 21 20 20 20 20 19 19 20 19 19 21 19 18 20 22 17 12 11 13 11 8 8 7 6 7 6 6 5
12 14 16 17 17 16 15 15 14 14 15 15 16 16 16 17 17 17 18 18 18 19 19 19 19 19 19 19 20 21 21 21 21 21 21 21 21 21 21 21 21 21 21 20 20 21 21 21 20 21 21 20 20 20 19 18 18 19 19 21 21 20 21 21 20 18 19 21 19 19 21 21 20 19 19 15 11 12 13 11 8 7 7 6 6 6 5 5
12 13 14 15 16 15 14 13 12 12 13 14 15 16 16 16 17 17 17 18 18 18 19 19 19 19 19 20 20 21 21 20 20 20 21 21 20 21 21 21 20 20 20 21 20 21 21 21 21 21 20 20 21 19 19 18 18 19 19 19 20 21 22 20 18 18 20 20 18 19 21 23 22 18 17 14 12 15 15 11 9 8 7 6 6 6 5 5
12 12 13 14 14 14 13 11 11 11 12 14 15 16 15 16 16 17 17 17 18 18 18 19 19 18 18 20 21 20 20 20 20 20 20 20 20 20 20 20 20 20 20 20 21 20 20 20 20 20 18 19 20 18 19 19 18 20 19 18 18 19 21 20 18 19 21 19 18 21 21 23 23 18 17 14 13 18 15 10 9 8 7 6 6 5 5 5
12 12 13 14 14 13 12 11 11 11 11 14 15 15 15 15 16 16 17 17 17 18 18 18 18 18 18 20 20 19 19 19 19 19 20 20 20 20 19 19 20 20 20 20 20 20 20 20 20 20 19 18 18 19 20 19 18 19 19 19 18 18 21 21 18 17 21 20 18 21 21 22 22 18 16 12 13 18 14 10 9 8 7 6 6 5 5 5
11 12 12 13 13 12 11 11 11 11 12 14 15 15 15 15 16 16 17 17 17 17 17 17 17 18 19 20 19 19 19 18 18 18 19 19 20 19 19 19 19 19 20 20 20 20 20 20 18 17 18 18 19 20 20 19 19 18 18 20 19 18 19 20 19 17 18 20 19 20 20 22 21 16 14 12 13 17 14 10 8 7 7 6 5 5 5 5
11 11 12 13 13 11 10 11 11 11 12 14 14 15 15 15 16 16 16 16 16 16 16 17 17 18 19 19 19 19 18 17 18 18 18 19 19 19 19 18 18 18 19 19 20 20 19 19 17 16 18 18 18 20 19 19 19 18 17 18 18 18 18 19 20 18 17 19 20 20 20 21 21 17 14 11 11 14 13 10 8 7 6 6 5 5 5 4
11 11 12 13 12 11 10 11 11 11 12 14 14 15 15 16 15 15 15 15 15 16 16 16 16 18 20 19 18 18 17 17 17 17 18 18 18 19 19 17 16 18 19 19 19 19 18 18 17 18 18 17 18 19 19 19 20 20 18 18 18 17 18 18 19 18 18 19 20 20 19 21 21 18 14 10 9 13 11 8 7 6 6 6 5 5 5 4
11 12 12 12 11 10 11 11 11 11 12 14 15 15 15 15 15 15 14 15 16 18 19 18 18 20 20 19 17 16 16 16 17 17 17 17 18 18 18 17 17 18 19 19 19 18 18 18 18 19 18 17 19 19 20 20 20 20 19 19 20 19 19 18 18 18 18 19 19 19 19 20 21 19 15 10 9 11 9 7 7 6 6 6 5 5 5 4
11 12 12 11 11 11 11 11 12 11 12 14 14 15 16 16 17 17 15 14 16 18 19 18 18 20 20 18 16 16 16 16 17 17 17 17 18 18 18 17 18 18 18 19 19 17 17 19 18 19 19 18 18 18 19 19 18 19 18 18 19 19 19 18 18 18 17 18 19 18 18 18 19 18 13 9 9 9 9 8 7 6 6 6 5 5 5 4
12 12 11 11 11 11 11 11 12 11 12 13 14 15 16 17 18 18 16 16 16 15 17 17 17 18 19 17 16 16 18 18 16 16 16 17 18 19 18 17 18 18 17 17 17 16 17 18 19 19 18 18 18 18 18 18 18 18 18 18 18 17 17 18 18 17 16 17 19 17 17 18 19 15 10 9 11 10 9 9 8 6 6 5 5 5 5 5
12 12 11 11 11 11 11 11 12 11 11 12 13 13 14 15 17 17 16 18 17 14 15 15 15 16 16 16 17 17 19 19 17 16 16 17 17 18 18 17 18 18 16 16 17 17 17 18 18 18 17 17 17 17 17 17 17 17 17 17 17 16 17 18 17 15 15 17 18 17 17 19 18 12 8 8 10 9 7 8 7 6 6 6 5 5 5 5
12 12 11 11 11 11 11 11 11 11 11 12 12 13 13 15 16 16 16 17 17 15 15 16 16 17 16 16 17 17 18 19 18 17 16 17 17 17 18 17 17 17 16 17 18 17 17 18 18 17 17 17 17 16 16 16 16 17 17 17 17 16 17 19 17 15 15 15 16 17 16 18 17 11 8 7 7 6 5 6 6 5 6 5 5 5 4 5
12 12 11 11 11 11 11 12 11 12 12 12 12 14 15 16 16 16 16 17 17 16 16 16 16 17 17 17 17 18 18 17 18 17 16 17 17 16 17 18 17 17 16 16 17 18 19 18 16 16 17 17 18 16 16 16 16 16 16 16 17 17 17 18 17 16 16 15 14 16 16 17 17 15 11 7 6 6 5 6 6 5 5 5 4 4 4 4
12 12 12 11 11 11 11 12 12 12 12 11 13 15 15 15 16 16 17 17 16 16 15 15 15 17 17 16 17 17 17 17 17 16 15 17 17 17 17 17 17 18 17 16 16 17 18 17 16 17 17 16 17 17 16 17 17 16 17 17 17 17 17 17 16 16 17 17 15 15 18 19 17 16 13 8 7 7 6 6 6 5 5 5 5 5 4 4
12 12 12 11 11 12 12 12 12 12 12 12 14 16 15 16 16 16 17 16 16 16 17 17 17 17 17 16 16 16 17 17 14 13 14 16 17 17 17 16 16 17 16 15 15 16 17 16 16 18 17 16 17 16 15 16 16 17 16 16 16 16 16 16 16 16 17 18 14 13 17 18 18 18 13 8 7 7 6 6 6 5 5 5 5 5 4 4
12 11 11 11 11 12 12 12 12 12 13 14 15 15 15 16 16 17 17 16 16 17 17 16 16 17 17 15 15 17 18 16 14 13 14 15 16 17 17 16 16 16 15 15 16 16 16 15 15 16 17 16 16 16 15 15 17 17 15 14 16 16 16 16 16 16 17 16 15 14 16 16 17 17 11 7 9 8 6 6 6 6 6 5 5 5 5 4
12 12 11 11 11 12 12 12 12 12 14 15 15 15 16 16 16 17 18 17 17 18 17 16 15 16 16 13 14 16 16 15 16 15 13 14 16 16 17 16 16 16 15 16 17 15 15 16 16 15 16 16 16 17 15 15 18 17 13 13 14 15 15 15 15 16 14 15 16 16 15 15 17 15 10 8 11 11 9 7 6 6 6 6 5 5 5 4
12 12 11 11 11 12 12 12 12 13 14 14 15 15 16 16 17 18 17 16 18 18 17 16 16 15 15 14 15 15 14 14 16 15 13 15 15 15 16 15 16 16 14 15 17 16 14 15 15 15 16 16 16 15 14 16 18 14 11 13 13 13 14 14 15 16 15 14 16 17 16 17 17 16 13 12 14 15 11 7 6 7 6 6 6 5 5 4
11 11 12 11 11 12 12 12 12 13 14 14 14 15 15 16 17 17 15 17 20 18 16 16 16 15 15 15 15 15 15 14 14 14 14 15 15 15 14 13 15 16 15 15 16 15 14 12 12 15 16 15 14 12 10 13 14 12 13 16 16 15 15 14 14 15 16 15 16 16 16 16 17 16 15 14 14 14 12 8 7 6 6 6 6 6 5 4
11 11 11 11 11 12 12 12 12 13 13 14 14 14 16 16 15 16 16 18 20 17 15 15 15 14 15 15 15 15 15 14 13 14 15 14 15 15 14 14 15 15 15 15 15 14 14 13 14 14 13 13 14 13 10 10 11 13 16 17 17 16 16 15 15 15 15 17 16 14 13 15 16 17 16 15 12 10 11 11 8 6 6 6 5 6 5 4
11 11 12 11 11 12 12 13 13 13 13 14 14 15 16 15 14 16 16 18 20 18 17 16 14 14 14 15 15 14 14 14 14 14 14 14 14 15 15 16 16 15 15 15 15 15 15 15 14 14 12 13 16 15 12 11 12 15 17 16 16 16 16 16 16 15 15 16 14 12 14 14 15 17 17 16 14 9 9 9 8 7 6 6 6 5 5 4
11 11 11 11 11 12 12 13 13 13 13 13 13 14 15 14 15 16 16 19 20 17 17 16 14 14 14 15 15 14 14 15 14 14 13 13 14 14 14 14 14 16 16 14 14 15 16 15 14 15 14 14 16 17 15 14 14 15 16 17 16 16 16 17 15 14 15 16 13 11 14 15 16 17 15 14 12 7 6 7 7 7 6 6 6 5 4 4
11 11 11 11 11 11 12 12 13 13 13 13 13 14 14 15 16 17 17 18 18 16 16 15 14 14 14 15 15 14 15 15 13 13 13 13 13 14 14 13 12 15 16 14 14 14 16 17 15 15 15 15 16 17 17 16 13 13 15 16 16 16 17 17 16 16 17 16 13 12 14 17 18 15 10 8 7 4 5 5 5 6 6 6 5 4 4 4
11 11 11 11 11 11 12 12 13 13 12 12 13 13 14 15 16 17 17 17 17 16 15 14 14 14 14 15 14 14 16 16 13 13 13 13 14 14 14 14 13 14 16 16 15 14 15 17 16 13 13 14 15 15 15 15 15 13 13 15 16 17 17 16 15 15 15 15 14 13 15 16 14 10 5 5 5 5 5 5 4 6 6 5 5 5 4 4
11 11 11 11 11 11 12 12 13 13 12 12 13 13 14 16 16 16 18 18 17 16 15 15 15 15 14 14 14 13 15 15 14 14 13 13 13 13 14 15 13 14 16 17 16 15 15 16 14 12 13 13 13 14 14 15 16 13 13 15 14 14 17 17 14 12 12 15 15 14 15 15 13 10 6 5 6 6 5 5 5 5 5 5 5 5 4 4
11 11 11 11 11 11 12 12 13 12 12 12 13 14 15 16 16 16 17 17 17 16 16 17 16 16 15 15 14 14 15 15 14 14 14 13 14 14 14 15 14 14 16 17 17 16 16 17 14 13 15 13 10 13 14 13 14 14 14 15 14 13 16 16 15 14 13 14 15 14 15 16 16 15 10 7 9 9 6 5 5 4 4 5 5 5 4 4
11 11 11 11 11 12 12 12 12 12 12 13 14 15 15 15 15 16 16 16 16 16 17 18 17 17 16 15 15 14 14 15 14 14 14 14 16 15 15 16 15 14 15 16 17 16 16 17 15 12 13 13 10 13 15 13 12 14 14 14 14 16 16 15 15 16 15 15 15 16 16 15 16 16 13 12 14 13 8 4 4 5 4 5 5 5 4 4
11 11 12 12 12 11 12 12 11 11 12 13 14 15 15 15 15 15 16 16 17 17 18 18 18 17 16 15 16 14 14 15 13 14 15 15 16 15 15 17 15 13 14 15 16 16 15 17 16 12 12 13 13 14 15 14 13 13 13 13 14 15 16 15 15 15 16 16 16 16 17 16 16 15 16 17 16 13 9 5 5 5 5 5 5 5 5 4
11 11 12 13 13 11 11 11 11 11 13 14 14 15 15 15 15 15 15 16 17 16 17 18 17 17 16 15 15 15 15 14 13 14 15 15 16 16 15 16 16 13 13 14 15 16 15 16 16 13 11 13 14 14 15 15 14 13 14 14 14 14 14 15 14 14 16 16 15 15 16 17 16 12 14 16 13 10 9 8 6 5 5 5 5 5 5 5
11 12 12 13 13 12 11 11 11 12 13 13 14 15 14 14 15 14 14 15 15 15 15 16 17 16 16 15 15 15 15 14 13 14 15 15 16 17 16 16 15 13 13 14 15 15 15 15 15 14 13 14 15 13 12 14 14 14 15 14 14 14 14 15 14 14 14 15 16 15 15 17 14 8 9 11 9 8 8 8 6 5 5 5 5 6 6 5
11 12 12 12 12 12 11 12 12 12 13 13 14 15 14 14 14 15 14 14 14 14 14 15 16 16 15 16 15 15 14 14 13 14 15 15 16 17 16 15 15 14 14 14 14 14 15 15 15 14 13 13 13 11 9 11 12 14 14 14 15 15 15 16 15 14 14 13 13 13 14 15 12 6 7 8 7 7 7 6 6 5 5 5 5 6 6 5
12 12 10 10 11 11 11 12 13 12 13 13 14 15 14 13 14 15 14 14 14 14 14 14 15 15 16 15 15 14 15 15 14 14 14 15 16 15 14 14 14 15 16 15 14 14 14 15 15 14 14 13 12 11 10 10 12 14 14 13 13 14 15 15 14 14 14 13 13 13 13 15 11 7 7 7 6 6 6 6 6 5 5 5 5 6 5 5
11 10 9 9 10 11 12 13 13 13 13 13 14 14 13 13 13 14 14 14 14 13 14 14 14 15 15 15 15 15 15 15 15 14 14 15 15 12 12 13 14 15 16 16 15 15 15 15 15 14 14 13 13 13 12 12 12 13 13 12 12 14 13 12 12 12 12 13 14 13 13 15 12 7 7 7 6 7 6 6 6 5 5 5 5 5 5 5
11 10 9 9 9 10 12 13 13 13 13 13 13 13 13 12 13 14 14 14 14 14 14 14 14 14 14 14 14 14 14 15 15 14 14 14 13 11 11 12 13 15 15 14 16 16 15 15 15 14 14 14 13 14 13 13 12 12 12 12 11 12 12 12 13 12 12 13 14 13 14 14 12 10 10 9 8 8 7 5 5 6 6 5 5 5 5 5
11 11 10 9 9 10 10 11 12 13 13 13 13 13 13 13 12 13 14 14 13 13 14 13 13 14 13 13 14 14 14 14 14 14 14 14 13 11 10 10 12 13 13 13 14 15 14 14 14 15 15 15 15 15 13 13 13 13 13 13 12 11 12 12 12 12 12 12 13 14 14 14 13 13 12 10 10 10 8 6 6 6 6 5 5 5 5 5
11 11 10 10 10 10 10 10 11 13 13 13 13 13 13 13 12 12 13 13 13 13 13 13 13 13 13 13 13 13 14 14 13 13 13 13 13 10 9 10 11 11 12 12 13 14 14 13 14 14 14 14 15 14 12 13 14 14 13 13 12 11 11 11 11 12 13 12 12 13 13 13 13 13 12 12 12 10 8 7 7 7 6 5 5 5 5 5
10 11 10 10 11 10 10 10 11 11 12 13 13 13 13 13 13 13 12 12 12 13 13 12 12 13 13 13 13 13 13 13 13 13 12 12 12 11 10 11 10 9 11 12 11 13 14 14 13 13 13 13 13 12 12 13 14 14 13 14 13 11 10 11 11 12 13 12 12 14 13 12 13 12 12 13 11 10 10 9 7 7 6 5 5 5 5 6
8 9 9 9 10 10 10 11 11 11 11 12 11 12 12 12 13 13 12 11 11 12 13 13 12 13 13 13 13 12 12 12 12 12 12 12 12 11 11 12 10 9 10 12 11 11 13 13 13 13 13 13 12 11 11 12 12 12 12 12 12 11 10 11 11 11 11 11 12 12 11 11 11 12 12 12 10 9 10 8 6 7 7 7 7 7 7 6
8 8 9 9 9 9 10 10 11 10 11 11 11 11 11 12 12 12 12 12 11 11 12 13 13 13 13 13 13 12 12 13 13 13 12 12 12 11 12 12 11 9 9 11 11 11 12 12 12 12 12 12 11 10 9 10 10 11 11 11 10 10 10 9 9 10 9 10 10 10 9 10 10 10 10 10 9 9 9 9 8 8 8 8 8 7 7 6
5 5 7 9 9 8 9 10 10 11 10 10 10 10 10 10 11 12 12 12 12 12 12 12 13 12 12 12 12 12 12 13 13 13 13 12 12 12 12 12 12 10 10 10 10 11 11 10 10 10 11 12 11 9 9 9 9 9 9 9 8 9 10 8 8 9 10 10 10 9 9 9 10 9 8 9 9 8 8 9 8 8 7 7 7 7 6 5
5 5 7 8 8 7 7 8 9 10 10 10 10 10 10 10 10 12 11 11 11 11 11 12 13 12 11 11 12 12 12 12 11 10 11 11 11 12 12 12 12 12 10 9 10 10 10 10 10 10 11 11 9 7 8 9 9 9 10 10 9 9 9 9 9 9 9 9 9 9 9 10 10 9 9 9 8 7 7 8 8 8 7 6 6 6 6 5
Height
814 814 814 814 814 814 813 814 814 814 814 814 815 815 815 815 815 815 814 814 814 814 814 814 813 813 813 812 811 810 809 808 807 807 806 806 806 807 807 807 807 807 808 808 808 809 809 809 809 809 809 811 815 816 816 817 819 819 827 832 834 840 837 830 832 831 829 827 824 822 824 825 823 822 820 819 819 820 822 820 817 815 814 814 815 815 814 813
813 813 813 813 813 813 813 813 813 814 814 814 815 815 815 814 814 814 814 814 813 813 813 813 813 813 812 812 811 810 809 807 806 805 805 805 805 806 807 807 807 807 808 809 809 809 810 811 811 811 812 814 818 817 816 819 819 824 833 834 833 836 831 827 827 826 827 826 824 824 826 827 824 824 823 822 822 821 821 819 818 817 814 814 816 815 814 813
813 812 812 812 812 813 812 813 813 813 814 814 814 814 814 813 813 814 813 813 813 813 813 813 813 813 813 812 811 811 808 806 806 806 805 805 806 806 807 807 807 807 808 809 810 810 810 812 811 812 815 817 821 819 818 820 822 828 833 831 830 831 828 828 827 824 825 825 825 825 828 828 824 824 824 825 825 821 821 820 819 819 815 816 819 818 816 815
812 812 812 812 812 812 812 813 813 813 813 813 814 813 813 813 813 813 813 813 813 813 812 813 813 812 813 812 812 811 808 809 809 807 806 806 806 807 807 807 807 808 808 809 810 810 811 812 811 814 816 819 823 822 822 823 824 829 830 828 829 833 829 825 825 825 825 827 826 826 829 826 823 825 824 825 827 822 819 819 819 819 818 820 821 821 819 818
812 812 812 812 811 812 812 813 813 813 813 813 813 813 813 813 813 813 813 813 812 813 812 813 812 812 813 811 813 810 811 817 812 806 807 807 807 807 807 808 808 808 809 809 810 811 811 812 813 816 819 821 823 822 825 827 826 828 829 829 830 834 829 823 825 826 826 828 827 827 826 823 822 824 823 824 826 822 818 819 821 822 823 824 824 823 822 821
812 812 812 811 811 811 812 812 812 812 812 812 812 813 813 813 813 813 813 813 812 812 812 812 812 813 812 812 813 810 815 820 811 805 808 807 807 808 808 808 808 809 809 809 810 811 812 814 815 819 822 823 825 825 826 829 828 827 829 830 831 832 828 824 825 826 826 827 825 824 823 823 824 822 822 822 821 820 822 824 825 826 826 826 825 825 825 825
811 811 811 811 811 811 811 812 812 812 812 812 812 812 813 813 813 813 812 812 812 812 812 812 812 812 812 812 812 812 816 815 806 806 808 807 808 808 808 808 808 809 809 810 810 811 814 816 817 822 823 823 826 827 828 828 827 829 829 827 829 832 827 823 825 826 828 826 823 823 823 823 823 822 823 821 821 824 827 827 827 827 827 826 826 827 827 827
811 811 811 811 811 811 811 811 811 812 812 812 812 812 812 812 812 812 812 812 812 812 812 812 812 812 812 812 812 815 816 810 805 807 806 807 808 807 808 808 808 809 810 810 811 812 814 817 819 822 823 824 826 826 828 828 828 829 829 826 828 829 825 823 825 826 826 824 823 823 820 820 822 822 822 821 823 828 829 828 828 827 826 827 828 829 829 829
810 810 810 810 811 811 811 811 812 812 812 812 812 812 812 812 812 812 812 812 812 812 812 812 812 812 812 812 814 817 813 806 805 806 806 807 807 807 808 808 808 809 809 811 812 812 815 817 819 819 821 825 825 825 827 828 828 828 827 827 826 825 823 823 823 821 822 822 822 822 817 818 822 822 821 822 827 829 829 829 829 827 827 830 831 832 831 830
810 810 810 810 810 811 811 811 811 811 812 812 812 812 812 812 812 812 812 812 812 812 812 812 812 812 813 812 816 818 809 804 806 805 806 806 806 807 807 808 808 809 810 811 811 812 814 815 817 817 819 823 825 827 828 827 828 827 827 827 825 825 825 823 821 821 822 820 821 821 817 818 822 821 819 823 829 830 828 830 832 830 832 834 833 833 833 832
809 809 809 809 810 810 810 811 811 811 812 812 812 812 812 812 812 812 812 812 812 812 812 812 812 812 812 812 816 815 806 804 806 805 806 806 806 807 807 808 808 809 810 810 812 812 813 813 815 816 819 822 825 828 828 826 827 827 828 827 825 826 824 821 820 822 822 818 820 821 818 820 822 820 817 823 830 830 827 831 835 834 835 836 835 835 834 833
808 808 808 809 809 809 810 811 811 811 812 812 812 812 812 813 812 812 812 812 812 812 812 811 812 812 812 813 813 809 804 805 805 805 806 805 806 807 807 808 808 810 810 811 812 812 813 814 814 817 820 822 825 829 827 827 829 828 829 828 826 825 822 819 821 823 821 817 819 821 819 817 819 821 820 825 831 828 828 832 835 836 837 838 837 837 836 835
807 808 808 808 808 809 809 810 811 811 811 811 812 812 812 812 812 812 812 812 811 811 811 810 811 811 812 812 808 804 804 804 804 805 805 805 807 807 808 809 809 810 810 811 812 812 813 813 814 817 820 821 825 828 826 828 830 829 831 832 831 829 824 821 823 823 819 819 819 820 823 814 814 825 823 827 830 824 827 833 836 838 838 839 838 838 837 837
806 807 807 807 808 808 809 810 811 811 811 811 811 812 812 812 812 812 811 812 811 810 810 810 810 810 812 810 803 803 803 803 804 805 805 806 806 807 808 809 809 810 811 811 812 812 813 814 815 817 820 823 824 826 827 831 832 831 833 836 840 838 826 820 824 823 818 821 819 819 827 816 811 825 824 826 828 821 827 836 838 838 838 839 839 839 838 838
806 806 807 807 807 808 809 809 810 811 811 811 811 812 812 811 811 811 811 811 810 810 809 810 810 810 813 809 802 803 802 802 804 804 805 806 806 807 808 809 810 810 811 812 812 813 814 814 816 819 823 825 824 827 831 833 835 836 836 837 845 844 830 821 824 825 819 820 819 819 827 819 812 823 824 828 828 821 829 837 838 839 839 840 839 839 839 838
805 805 806 807 807 807 808 809 810 810 810 810 811 811 811 811 811 811 810 810 810 810 810 810 810 811 814 808 802 802 802 802 803 803 805 805 806 807 808 809 810 811 812 813 813 814 814 815 820 825 825 826 828 830 834 838 839 841 841 837 840 842 837 828 823 826 824 820 821 821 825 819 815 824 827 829 829 823 829 836 839 840 840 842 841 840 840 839
803 804 805 806 806 807 808 809 809 809 809 810 810 810 810 810 810 810 810 810 810 810 810 810 810 811 810 805 803 802 801 801 801 803 804 804 806 806 808 809 810 812 812 813 813 814 815 818 825 827 827 831 832 831 839 845 840 841 846 843 841 841 840 833 824 825 827 823 822 823 826 819 814 822 828 832 832 826 830 837 840 842 843 843 843 842 841 840
802 803 804 805 806 807 808 809 809 809 808 809 809 809 810 809 810 810 810 810 810 811 812 811 811 814 809 802 802 801 800 801 801 803 804 804 806 806 807 809 810 812 813 815 815 816 819 822 826 828 830 835 832 832 840 840 831 832 841 841 841 841 840 837 830 826 826 824 824 826 827 820 812 819 828 834 835 829 833 841 842 844 845 844 844 843 842 841
800 801 803 804 805 807 808 808 809 808 808 808 808 809 809 809 810 810 810 811 810 809 810 808 808 811 806 800 801 800 800 801 802 802 803 804 806 807 808 808 811 812 815 819 818 819 821 823 829 829 830 832 829 829 829 825 823 826 832 835 834 834 835 834 830 827 827 826 826 826 827 821 813 816 826 835 837 834 839 843 843 844 845 844 844 843 842 842
799 800 801 803 804 806 807 808 809 808 808 808 808 808 809 810 810 810 809 809 806 802 802 802 801 801 800 799 800 800 801 802 802 803 803 804 805 807 808 810 812 814 817 819 820 822 823 826 828 824 823 825 824 824 822 823 827 830 833 834 834 834 831 829 828 827 828 828 825 824 826 823 816 819 831 839 837 837 840 840 842 844 844 845 845 844 844 843
798 799 800 802 804 805 806 807 808 808 807 807 807 807 808 808 810 810 808 805 800 798 799 799 799 798 797 798 799 799 800 801 802 803 803 804 805 807 809 812 814 818 821 822 823 824 825 828 823 816 818 821 822 824 825 827 830 831 833 833 835 838 834 828 828 829 830 830 825 825 828 821 815 824 837 840 835 835 838 839 841 844 845 847 846 846 846 845
797 798 799 802 803 804 805 806 808 808 807 807 806 806 806 805 806 806 807 805 799 796 798 798 799 798 796 797 798 798 799 801 803 803 803 804 805 807 810 813 815 818 823 824 823 826 830 827 817 815 820 822 824 827 828 830 832 832 835 837 836 837 835 828 829 833 832 830 826 827 829 817 816 833 842 841 838 840 843 841 843 845 846 847 847 847 847 846
796 796 799 800 802 803 804 806 807 807 807 807 806 805 805 805 805 805 806 808 802 795 795 796 796 796 795 796 796 797 799 800 802 802 802 803 805 808 809 812 816 818 822 821 820 826 829 821 814 816 820 821 825 828 829 832 834 834 835 836 834 835 836 828 828 833 832 833 830 828 830 820 818 833 842 845 844 844 847 845 846 847 846 847 848 848 848 848
793 796 798 799 802 803 803 805 805 806 806 806 805 804 804 804 805 805 805 808 805 796 792 792 792 791 791 792 792 795 798 798 798 798 799 801 805 808 808 810 816 818 819 819 819 821 818 813 815 818 819 820 823 827 831 831 833 835 834 834 832 832 833 829 830 832 831 835 835 832 831 821 815 821 831 844 848 846 848 847 847 848 848 848 848 848 849 849
791 794 796 798 801 801 804 805 803 804 804 804 803 802 804 804 804 805 806 810 808 797 791 789 789 788 786 789 790 792 796 796 795 796 796 798 801 806 808 809 813 815 817 821 823 821 815 813 816 817 820 822 822 826 829 829 832 833 829 828 827 826 829 831 834 834 832 832 834 835 828 815 812 813 824 842 848 846 849 848 848 849 848 848 848 848 849 849
790 792 795 797 799 800 803 802 801 802 803 803 801 800 803 803 804 804 806 817 812 795 791 788 787 786 783 788 790 792 797 797 795 795 796 798 798 800 806 810 812 813 817 821 823 821 816 815 815 814 818 821 822 825 827 828 833 833 827 824 826 828 830 833 835 834 833 831 836 840 832 821 812 807 824 845 847 847 850 848 849 849 848 848 848 848 848 848
787 790 793 796 797 799 800 799 799 801 801 800 798 800 802 801 805 802 808 825 811 785 785 788 786 784 783 789 789 790 798 796 795 797 796 798 798 798 804 810 812 814 816 819 822 818 813 815 817 816 817 821 822 822 825 827 828 828 828 827 826 826 828 833 834 834 834 834 837 837 835 834 820 813 835 848 843 846 849 848 849 848 847 848 848 847 847 848
785 788 790 793 795 796 797 797 798 798 799 797 796 800 800 801 804 801 814 830 802 773 779 785 784 782 784 790 789 791 796 795 795 799 798 798 799 799 803 807 808 810 813 816 817 816 814 813 815 816 818 821 819 816 820 823 821 824 832 832 830 829 831 834 834 835 840 841 837 832 835 836 822 820 841 846 836 832 837 845 847 846 848 847 847 847 846 847
783 785 788 791 792 794 796 796 796 796 797 797 797 799 799 802 802 803 825 826 786 768 778 780 782 785 786 791 792 793 796 795 796 798 798 799 799 800 804 807 808 811 815 815 812 813 815 815 814 814 815 815 815 818 821 817 816 826 835 832 832 836 836 836 834 834 840 843 835 827 829 831 820 817 830 835 825 817 826 844 846 844 848 847 846 846 845 846
780 782 785 789 790 792 793 794 795 795 797 797 798 799 799 802 804 817 834 810 771 771 782 780 783 787 788 792 795 795 795 797 799 799 800 800 800 801 805 808 809 811 814 816 814 813 816 820 818 814 812 812 815 824 829 822 821 828 828 822 826 832 833 836 837 835 837 838 831 825 826 828 822 816 817 821 819 816 824 839 844 845 847 845 845 845 844 846
777 779 783 785 785 787 788 790 792 794 796 797 798 799 800 805 813 824 818 784 766 777 781 782 788 787 787 790 792 795 795 798 800 799 801 803 802 803 806 807 809 814 817 816 815 816 816 817 816 812 814 816 815 822 831 830 828 825 819 818 824 829 831 835 837 838 839 832 827 833 835 833 825 813 810 813 819 825 823 825 834 842 843 843 844 843 844 845
774 777 779 781 782 784 784 785 789 793 795 796 798 798 800 814 819 810 792 772 769 776 774 780 786 786 788 788 789 794 796 797 800 799 802 805 805 804 804 804 805 812 818 817 816 817 813 812 813 812 815 815 809 816 827 830 828 822 818 822 828 834 836 834 836 842 840 830 833 840 835 830 822 808 804 805 812 828 829 826 832 836 839 842 842 842 844 845
771 775 777 778 779 781 782 784 787 792 793 795 799 798 804 816 804 784 779 772 768 770 770 776 783 785 788 788 789 794 795 795 798 800 803 806 807 806 804 804 804 804 808 816 819 817 811 810 812 810 809 809 805 809 816 820 824 822 818 820 827 836 838 835 840 846 836 827 837 844 834 825 813 803 808 810 815 831 834 832 834 834 837 839 839 843 844 845
769 772 774 775 776 778 781 784 786 789 792 794 797 801 809 806 780 766 772 770 765 770 773 776 783 788 787 786 788 790 791 794 797 799 803 806 807 807 804 805 807 801 803 814 818 817 812 804 803 805 804 803 801 801 804 810 821 823 819 818 821 824 825 826 830 830 824 822 834 841 829 812 800 805 822 826 829 837 835 834 837 835 837 839 841 845 845 845
767 770 771 772 774 775 778 782 783 787 791 792 796 803 802 787 769 765 766 764 766 772 776 778 782 787 789 788 789 788 784 788 796 799 802 803 803 802 798 799 804 801 800 806 809 815 815 802 797 805 806 803 801 802 804 807 816 825 825 821 818 814 812 822 830 829 830 829 830 832 819 804 806 822 837 837 834 835 833 834 836 834 837 841 843 845 844 844
765 767 769 768 768 770 774 777 780 784 787 789 795 796 782 765 761 762 756 755 761 768 776 782 781 786 791 789 791 790 782 784 794 797 799 803 800 798 796 792 796 797 792 795 800 808 811 803 801 807 806 806 806 804 805 805 809 822 826 817 818 817 809 818 833 841 843 833 823 822 812 803 808 819 832 838 832 831 833 833 834 836 838 840 842 842 842 842
761 762 762 761 762 766 770 773 775 779 782 782 782 775 762 753 753 754 751 751 756 761 768 774 774 777 784 786 786 788 784 785 791 792 795 799 793 789 791 787 788 790 784 785 791 795 798 797 801 806 802 808 815 808 806 808 809 816 819 812 817 821 814 816 825 833 840 833 820 816 808 800 799 803 820 831 824 821 830 834 835 837 839 839 839 838 839 839
756 759 756 753 757 761 765 770 771 774 777 776 772 761 752 752 751 750 751 751 753 756 759 762 764 767 774 778 779 783 783 783 790 790 790 793 783 776 780 780 781 785 781 782 787 789 793 794 801 810 807 808 814 808 806 812 812 811 810 809 812 815 816 821 824 823 827 827 815 805 801 799 795 796 806 810 802 805 823 835 835 834 835 835 834 835 837 838
753 757 749 742 751 757 761 765 766 768 771 769 766 757 747 748 750 748 749 749 750 753 754 754 757 762 769 771 771 777 779 779 787 788 783 784 779 772 773 772 775 783 782 782 785 788 792 792 798 810 811 808 809 806 805 809 813 812 811 813 813 811 812 816 819 816 814 818 813 803 798 790 787 790 789 787 790 799 816 829 830 829 830 830 829 830 833 834
749 751 738 732 745 753 756 761 762 763 761 756 753 748 742 746 748 747 748 747 748 752 752 750 753 758 765 769 769 771 773 776 782 782 776 775 773 770 770 767 771 782 785 783 785 787 791 793 796 807 812 809 804 802 800 799 805 809 810 813 814 814 815 814 815 812 810 813 812 811 803 784 783 797 791 786 798 807 810 815 820 825 826 825 826 826 828 830
743 743 731 727 737 746 754 758 756 755 753 748 745 741 742 745 746 747 748 748 749 752 753 752 751 753 759 764 765 766 769 774 777 776 772 771 769 766 765 764 768 778 784 786 785 784 788 792 796 802 807 803 796 799 802 798 798 799 800 803 805 807 812 815 815 813 811 810 806 809 804 782 786 809 807 800 808 810 810 813 817 822 822 822 824 825 827 829
736 733 726 726 730 738 749 750 745 746 747 743 739 737 741 744 744 745 747 749 750 751 753 754 752 752 754 755 758 762 766 770 774 771 767 766 764 761 761 763 766 769 773 781 783 781 784 790 793 797 800 798 798 805 810 806 801 798 798 799 799 801 803 804 809 809 810 813 809 812 808 788 794 814 813 809 812 811 814 817 817 819 820 822 825 825 827 828
726 726 725 727 727 731 740 742 740 742 740 735 734 735 739 742 743 744 745 747 751 752 753 754 751 751 750 750 755 759 760 763 767 767 764 763 761 761 763 764 766 766 766 774 780 780 782 786 790 794 796 798 800 803 806 807 803 798 797 800 801 799 798 799 804 805 806 807 808 815 807 789 797 814 812 812 815 813 815 815 814 819 820 821 823 823 825 827
721 725 727 727 726 726 728 729 730 733 733 732 734 736 738 739 739 740 741 743 747 750 751 751 750 748 748 749 752 754 756 758 761 762 762 761 761 765 768 765 764 764 763 766 769 772 778 783 787 794 798 800 802 801 801 803 802 798 797 803 803 798 801 808 810 811 810 802 801 810 800 783 794 811 811 811 812 811 813 815 815 817 818 819 821 822 824 827
718 725 727 726 726 725 722 718 719 724 728 731 732 734 737 738 735 734 736 739 742 744 746 747 747 746 748 751 751 753 754 755 758 760 761 763 764 767 769 767 764 762 763 764 762 764 774 778 781 788 793 794 794 794 794 794 797 800 800 802 803 800 801 803 803 808 810 802 798 800 791 784 794 802 802 806 808 807 812 816 816 816 817 818 819 820 823 825
711 718 725 726 725 724 722 719 717 719 722 726 729 729 731 734 733 733 734 736 738 739 741 745 746 746 749 750 750 753 754 754 758 759 760 762 764 768 771 770 768 766 766 767 764 765 775 778 777 777 778 778 776 780 786 787 789 793 794 793 798 801 800 799 801 804 804 803 798 789 785 788 791 791 796 801 802 803 809 814 815 814 814 816 818 819 821 821
707 712 717 720 721 722 722 720 718 715 714 719 723 723 725 728 731 733 733 733 734 736 740 744 744 744 747 747 749 753 754 755 758 759 760 762 764 771 775 772 771 771 769 770 769 768 775 778 775 773 773 773 774 777 784 785 781 783 786 787 792 799 801 801 801 797 795 802 797 783 786 792 787 788 795 794 795 802 808 811 811 811 812 815 817 819 819 819
710 710 710 711 713 715 715 715 717 715 713 714 718 719 721 726 728 729 731 734 734 734 737 742 741 739 740 742 747 753 756 757 758 758 759 762 764 771 774 771 773 775 771 772 773 772 773 773 773 776 777 776 779 783 784 782 780 781 783 782 784 794 800 799 797 792 791 794 786 780 788 791 785 788 792 791 795 800 802 805 809 809 811 813 815 816 816 816
712 712 712 712 711 711 711 710 713 717 715 715 718 720 720 722 723 723 728 734 737 734 732 735 736 735 737 740 744 752 756 755 755 755 756 759 762 767 768 768 772 777 774 771 775 775 772 771 772 776 777 776 781 788 788 785 786 786 784 782 783 790 794 794 793 793 793 791 785 787 795 793 787 789 791 792 800 802 800 805 809 808 809 810 811 812 812 813
712 712 712 714 714 714 713 711 712 716 716 717 721 722 721 721 720 721 724 728 731 732 730 729 730 731 736 740 743 747 748 744 745 748 750 755 759 761 761 760 766 776 776 773 776 777 775 776 777 778 780 778 781 791 795 792 792 790 784 785 790 792 795 799 800 798 799 798 795 798 802 795 789 792 796 797 800 801 800 802 804 806 807 807 808 809 809 811
713 714 712 713 716 717 716 714 713 714 716 718 720 722 724 725 721 721 723 723 722 726 726 725 727 731 737 742 742 741 740 740 742 744 745 748 751 752 754 756 760 769 775 776 776 775 777 783 786 786 783 777 782 795 797 796 801 798 787 788 794 791 790 796 799 795 794 793 795 800 800 793 788 793 799 798 798 800 801 800 802 804 806 807 807 806 808 810
714 714 712 713 717 721 721 720 718 717 716 715 716 718 721 724 723 722 725 725 723 724 725 724 726 733 740 742 740 737 739 743 747 749 748 749 749 750 752 755 756 761 770 777 778 777 780 782 784 787 782 777 790 802 799 799 801 788 772 776 787 788 786 790 792 790 788 789 791 793 789 786 789 794 796 795 796 800 801 800 801 801 803 806 806 805 807 808
Wind_Speed
3 3 3 4 3 2 2 3 2 1 1 1 1 1 1 0 1 1 3 4 5 6 6 7 7 8 9 10 11 12 14 15 13 11 7 5 3 5 3 1 2 3 4 4 4 4 3 4 4 6 4 3 4 2 3 3 2 5 3 4 1 2 2 4 6 6 3 2 5 5 4 3 4 4 3 2 2 4 3 4 5 4 4 4 4 13 14 12
3 2 3 3 2 2 1 1 0 1 2 1 1 1 1 0 1 2 3 4 5 6 6 7 7 8 9 10 11 13 15 16 14 10 6 3 3 5 3 2 3 4 4 3 3 3 4 2 3 6 6 3 3 3 2 2 3 4 3 3 2 5 4 5 6 5 3 1 4 5 3 1 3 2 3 3 5 7 6 5 5 6 8 6 12 16 15 13
4 3 4 2 2 2 1 1 0 1 1 1 1 1 1 0 1 2 3 4 5 6 7 7 8 9 9 10 11 13 15 14 9 5 4 2 5 5 3 4 5 6 5 3 4 4 5 3 3 6 4 3 2 3 3 3 2 2 4 2 4 6 4 4 5 6 5 1 2 4 2 1 4 2 1 0 5 8 5 5 3 4 9 8 11 16 18 18
4 4 4 3 3 3 2 2 2 2 1 1 1 1 0 2 2 3 4 5 6 7 8 8 8 9 9 10 10 12 13 9 4 2 3 4 5 4 3 4 5 7 5 4 5 4 6 6 6 6 4 3 4 3 3 3 1 1 3 3 5 3 2 4 6 6 4 1 1 1 3 5 4 1 2 2 3 8 5 5 3 4 7 6 7 12 18 19
5 5 5 4 4 3 2 2 2 1 1 1 1 1 1 3 3 4 5 6 7 8 9 9 9 8 9 9 8 10 9 5 2 2 2 3 4 3 3 4 4 6 5 5 6 5 5 5 7 6 4 2 4 4 2 3 2 1 1 4 5 3 2 5 5 4 2 2 1 2 4 4 1 1 4 4 3 6 4 1 2 0 3 4 6 9 14 17
6 5 6 5 5 4 3 2 2 2 2 1 2 2 2 3 4 5 6 7 8 9 9 9 9 8 7 6 6 5 4 1 3 2 1 3 4 3 2 3 4 6 5 6 6 5 5 6 6 4 3 2 2 2 1 3 2 0 2 2 3 4 3 4 3 3 1 2 3 3 3 1 3 4 4 5 6 4 3 4 6 5 6 8 9 10 11 12
8 7 7 6 5 4 3 3 3 3 3 2 2 2 3 4 4 5 6 7 8 9 9 8 8 7 6 4 3 3 3 3 5 3 5 5 5 4 3 3 4 6 6 5 5 5 5 6 4 3 4 2 1 1 0 3 4 3 2 4 2 4 5 4 1 2 2 3 7 3 3 1 1 5 1 2 4 2 6 6 8 8 11 13 12 10 9 10
8 9 8 6 5 4 4 4 4 3 3 2 2 2 3 4 4 5 6 6 7 8 8 7 7 6 4 1 0 3 2 5 5 3 5 5 6 4 3 2 3 5 6 4 3 5 5 5 4 4 3 1 3 2 1 2 4 3 4 4 1 2 6 6 4 4 5 7 5 2 5 5 5 3 0 2 1 6 5 7 7 8 13 14 11 10 9 10
9 8 8 7 5 5 4 4 4 3 2 2 3 3 3 4 4 5 5 6 6 7 6 6 5 4 2 1 4 2 4 5 3 3 4 5 6 5 3 2 2 5 6 4 4 6 3 3 4 4 3 2 4 2 0 1 2 3 5 3 3 5 6 5 5 4 3 4 2 1 8 5 2 1 0 3 3 5 6 8 7 9 12 11 8 9 9 10
9 8 8 7 5 5 5 4 4 3 2 3 3 3 4 4 5 5 5 6 6 6 6 4 4 2 2 2 5 0 4 2 2 3 3 4 5 5 4 2 3 5 6 5 5 7 4 5 5 4 4 2 3 1 1 2 1 4 4 3 4 6 7 3 4 5 4 4 3 4 9 6 3 1 1 1 4 3 8 10 8 10 10 8 7 7 10 11
8 8 8 7 6 5 5 5 4 3 3 3 3 3 4 4 5 5 5 6 6 5 5 3 2 1 3 4 5 3 4 2 3 2 2 4 4 4 4 2 2 5 6 5 5 6 4 6 8 6 2 2 3 1 1 3 2 2 1 4 6 6 7 4 4 5 3 3 4 6 5 5 2 0 4 2 3 3 9 10 8 9 7 7 7 6 9 11
8 7 8 7 6 6 5 4 2 2 3 3 4 4 4 5 5 6 6 6 6 5 4 3 2 3 3 3 3 7 5 2 3 1 2 4 4 4 2 2 2 4 5 4 5 7 4 7 10 5 1 4 3 1 2 2 2 2 3 4 8 8 6 6 3 2 1 1 4 5 2 5 1 2 4 1 4 6 11 8 7 8 5 6 6 6 7 10
10 8 8 7 7 6 5 3 2 3 4 4 5 4 5 6 6 6 6 6 6 4 3 2 3 5 3 0 4 8 8 6 4 2 3 4 5 4 3 3 3 3 4 3 4 6 4 7 9 5 2 5 2 1 2 3 3 1 3 2 5 7 6 5 0 2 3 0 2 3 2 7 4 3 5 2 5 7 10 6 6 5 5 5 5 5 6 10
10 9 9 9 8 7 5 3 3 3 5 6 5 5 6 7 7 7 6 6 5 3 2 1 3 5 3 3 5 6 9 8 6 5 5 6 6 5 5 4 4 3 3 4 4 4 4 7 7 5 2 3 1 2 4 6 4 1 1 2 2 2 5 6 1 0 2 1 2 4 2 7 5 2 4 0 4 8 7 4 5 4 5 5 4 5 5 8
11 9 10 9 9 6 4 3 2 3 6 6 5 6 7 7 7 7 5 4 3 1 0 2 5 5 2 4 5 5 8 7 6 8 7 7 6 5 5 6 5 6 6 5 5 5 6 7 6 4 0 2 3 3 3 4 4 2 1 3 3 2 5 8 3 2 2 1 4 5 3 7 5 2 4 4 4 8 8 3 4 4 5 5 4 5 4 5
11 10 10 11 10 7 4 3 2 3 6 6 6 7 7 7 7 5 3 2 2 2 2 3 5 5 1 3 2 3 6 5 6 8 9 8 6 5 7 8 7 7 6 5 6 6 6 6 4 2 1 2 4 5 3 4 4 3 0 4 3 2 3 6 4 2 1 0 3 2 2 5 3 1 5 6 5 8 7 3 5 5 4 5 4 4 4 4
11 10 12 13 11 7 5 3 2 5 6 6 5 6 6 7 5 2 1 3 4 3 3 3 5 3 1 2 2 3 3 4 6 8 10 8 6 7 9 7 5 6 6 5 4 4 5 4 1 0 2 3 3 5 3 3 5 3 1 3 4 3 2 3 4 4 4 3 1 2 2 6 6 1 5 7 4 7 7 4 4 4 4 4 3 4 4 4
11 11 12 13 10 6 6 4 3 6 6 5 5 6 5 4 2 1 3 4 4 4 2 1 3 1 3 2 2 2 2 4 7 8 9 8 7 9 8 5 5 7 6 4 2 2 2 3 2 1 3 2 3 5 3 5 5 4 3 3 3 3 4 4 4 2 4 3 2 1 3 9 11 2 6 6 3 7 6 4 4 4 4 3 3 3 3 4
11 11 12 12 10 8 7 4 4 6 6 4 4 3 2 2 1 1 3 4 2 1 1 3 3 2 3 2 1 2 5 6 7 7 8 8 9 9 7 6 7 7 5 2 0 1 1 2 3 1 2 3 6 8 9 9 6 7 6 4 4 4 5 5 5 5 1 2 4 6 6 8 12 5 4 5 4 7 6 4 3 3 3 2 3 3 3 4
12 12 13 13 9 8 8 5 4 6 6 3 1 1 1 1 2 2 2 2 5 5 2 4 6 2 2 1 2 6 6 6 4 4 8 10 11 10 6 4 6 5 3 4 3 1 3 3 3 6 7 8 10 11 9 5 5 5 5 4 4 5 6 5 4 5 1 1 6 6 6 8 10 5 3 3 4 6 4 4 3 2 2 2 3 3 4 4
13 12 14 13 8 9 10 5 5 7 6 4 1 2 2 3 1 2 3 3 9 9 6 6 5 5 4 2 6 9 5 2 1 3 9 9 9 8 1 2 5 2 1 3 3 2 4 5 9 10 7 8 8 8 6 2 4 4 4 3 4 5 6 6 4 4 1 2 5 3 2 9 9 1 4 3 3 3 2 4 3 2 2 2 3 4 4 3
14 14 15 13 10 13 11 5 6 8 7 5 2 2 2 2 2 1 0 3 8 8 8 6 3 7 5 3 7 7 3 0 1 2 8 8 5 5 1 4 5 3 1 3 3 2 2 5 12 8 5 5 2 4 5 4 3 2 3 2 4 3 3 6 4 4 2 3 4 2 2 9 7 2 3 2 2 0 1 2 3 3 3 2 3 3 4 4
16 16 15 13 12 13 9 5 7 8 8 7 4 3 2 0 2 1 2 0 6 4 5 5 4 6 5 3 7 8 3 4 3 5 10 9 3 3 4 5 5 4 3 5 5 5 3 7 10 5 7 6 2 3 6 3 2 3 3 3 4 2 0 4 4 4 1 1 2 2 3 7 5 1 3 2 2 2 3 4 4 3 3 2 1 2 3 3
17 16 16 15 14 11 7 6 8 9 10 9 9 7 3 1 3 2 1 0 4 4 4 6 4 5 6 4 8 11 4 4 4 4 11 12 4 3 4 5 5 4 4 7 7 6 7 6 2 5 7 7 4 3 6 5 2 4 5 6 5 3 4 6 4 4 3 3 1 2 2 6 5 4 2 1 1 2 3 4 4 3 2 2 2 2 3 2
17 17 17 16 15 12 9 8 10 12 10 7 10 11 5 2 3 3 1 1 3 5 4 4 3 4 6 5 8 10 2 2 3 4 10 12 7 4 2 3 4 5 6 6 6 5 8 5 4 5 3 5 6 4 5 7 3 4 5 9 10 7 7 5 3 5 4 4 3 1 3 5 4 4 4 3 1 1 2 2 2 1 2 2 3 3 3 2
18 18 19 19 16 14 10 6 8 10 8 6 7 8 8 5 5 4 3 3 4 4 1 3 3 5 7 4 5 6 2 3 2 2 7 9 6 4 2 2 1 4 6 5 3 3 4 2 3 5 5 5 5 4 5 7 5 3 4 8 10 7 4 3 2 1 0 3 3 3 2 5 5 5 2 3 2 1 1 0 1 1 0 1 2 1 1 2
23 21 22 22 20 18 11 3 7 8 4 6 7 8 9 8 6 3 3 3 5 3 3 1 0 4 6 2 3 6 2 3 2 3 3 4 2 3 3 4 2 2 4 4 1 3 3 0 2 5 5 6 5 4 6 8 7 3 4 4 6 7 6 5 5 4 3 3 3 3 1 3 5 4 1 3 2 2 3 3 3 3 3 2 1 1 1 1
28 25 25 25 25 23 13 3 8 10 3 4 10 11 10 9 6 2 4 2 4 3 3 1 1 3 2 1 3 5 2 1 4 1 2 3 1 2 2 6 6 4 2 5 4 3 3 3 4 6 5 5 6 4 8 10 5 4 3 6 6 6 6 5 5 3 1 2 4 4 0 2 5 4 3 4 0 6 6 6 5 5 5 4 3 3 3 2
30 27 25 28 28 25 18 8 8 8 4 6 13 12 11 9 4 4 3 4 2 2 2 1 2 1 2 3 3 3 1 2 2 2 2 3 1 3 2 5 6 5 1 2 5 3 1 4 6 8 5 5 5 3 8 10 4 4 6 7 6 5 5 4 4 3 2 1 4 6 3 2 5 3 1 1 3 7 5 5 6 6 5 5 5 5 5 3
31 28 26 30 28 25 23 16 11 8 5 10 13 13 12 7 3 4 3 5 1 1 1 2 2 1 5 6 0 1 2 2 1 1 2 1 2 5 2 2 6 5 1 4 2 3 2 2 1 4 4 5 5 2 2 5 5 6 6 6 6 5 4 3 2 4 2 2 6 7 5 4 4 4 3 3 4 4 5 4 6 5 6 7 6 6 5 4
32 29 30 34 30 26 22 17 18 13 7 13 15 14 10 3 4 4 6 3 1 1 2 2 1 3 7 7 3 2 3 1 1 3 2 1 2 4 2 2 4 4 2 4 3 4 4 1 2 2 2 4 6 5 3 2 4 6 4 4 3 3 3 4 4 3 1 5 5 4 2 3 4 5 4 5 5 4 5 7 9 10 9 8 7 6 5 4
32 30 33 37 32 28 20 16 24 20 10 16 16 9 5 2 1 7 5 1 0 3 4 4 3 5 7 4 2 4 4 1 1 3 4 3 3 4 3 4 5 3 2 4 3 4 3 4 3 2 1 3 5 5 4 4 4 5 4 5 4 2 3 2 3 0 3 6 4 2 1 3 6 5 5 6 6 5 4 5 8 11 11 9 8 7 5 4
33 30 34 38 34 30 24 19 25 23 16 18 12 3 3 3 7 9 7 2 2 3 3 3 2 4 7 5 2 4 3 2 4 3 2 3 3 5 3 2 6 4 1 4 2 0 3 5 1 1 2 3 7 5 2 1 2 4 5 5 4 2 1 2 3 2 4 4 2 2 1 2 4 3 5 6 5 4 5 5 5 9 11 11 9 6 5 5
33 31 35 39 34 31 28 22 24 26 22 16 8 3 4 7 7 6 9 7 1 1 2 4 5 5 6 4 4 5 3 3 5 5 2 3 3 4 5 4 4 4 3 3 3 4 2 4 3 6 2 4 8 6 5 6 4 4 4 5 5 5 4 4 3 3 4 3 2 2 1 3 3 2 4 5 4 3 4 5 5 6 7 6 5 5 5 6
33 33 34 36 32 31 31 26 25 29 23 12 5 4 8 10 6 4 7 7 2 1 3 3 6 6 4 3 3 5 4 3 4 5 3 4 4 5 5 6 6 4 4 4 2 3 3 5 5 2 1 4 7 3 4 7 3 2 2 4 3 4 4 2 3 5 3 3 3 2 3 4 3 1 2 3 4 4 3 2 4 6 6 5 5 6 7 7
34 33 33 34 31 30 33 31 30 32 23 10 5 7 10 11 5 3 4 5 5 6 6 3 3 5 4 2 2 5 2 1 4 4 3 3 4 5 4 5 8 8 6 5 3 2 3 4 5 2 2 1 3 2 2 3 3 2 2 3 4 4 6 3 1 1 4 2 4 2 3 5 1 1 2 3 4 4 4 2 4 6 7 7 7 8 8 8
34 30 28 32 32 31 34 34 35 33 18 7 9 11 9 8 5 4 3 3 5 8 9 4 3 5 6 4 4 6 3 1 4 4 3 3 3 6 6 4 6 12 10 4 2 3 4 2 4 1 1 2 1 2 3 3 3 5 3 5 3 2 4 3 1 2 2 2 4 1 4 5 2 3 2 3 4 5 4 2 3 5 7 8 10 10 9 8
32 24 20 29 36 34 35 37 36 26 9 4 11 12 7 5 4 4 3 3 5 7 7 7 6 6 6 6 4 6 6 4 4 4 4 3 4 5 8 4 5 12 12 5 1 2 4 1 4 0 2 2 2 3 3 4 3 4 3 3 4 3 1 2 2 2 2 3 4 3 5 5 4 4 2 3 8 8 6 4 5 8 10 11 11 11 10 8
25 13 12 29 40 36 37 40 31 14 4 6 12 11 6 4 3 4 5 4 4 6 7 7 5 3 4 6 4 6 8 7 7 6 4 4 4 4 8 5 4 9 9 7 4 2 3 2 3 1 2 1 2 2 3 2 2 3 1 1 2 2 4 3 2 3 3 4 5 6 6 5 4 5 6 8 10 9 8 7 9 12 12 12 11 11 10 9
16 6 7 24 38 38 39 36 19 6 6 9 11 9 3 3 3 3 4 4 2 2 4 5 5 4 4 5 3 4 7 6 8 6 4 5 4 4 6 4 5 5 4 6 5 2 3 3 2 2 1 2 2 3 6 7 4 2 2 3 1 1 2 1 1 2 3 3 3 5 7 6 3 3 6 6 5 6 10 11 11 11 11 12 12 11 10 10
10 7 3 18 39 42 34 20 8 6 7 8 11 10 4 3 3 3 3 4 2 1 1 2 4 5 5 4 3 4 5 5 7 6 4 6 4 2 5 6 8 8 5 4 5 3 3 3 3 2 1 3 5 4 4 6 5 4 5 6 6 4 3 1 4 2 2 2 3 3 7 7 3 2 3 2 3 5 8 9 8 9 12 12 11 9 9 8
7 8 3 22 46 45 24 8 6 7 6 8 8 7 4 3 4 6 3 3 2 1 2 1 2 3 4 5 4 5 6 4 6 6 4 6 6 4 4 6 9 10 7 4 3 3 3 3 3 3 3 5 5 3 1 2 1 2 3 3 5 5 5 5 6 3 2 2 1 2 4 6 1 1 2 3 4 4 5 7 7 8 9 9 7 7 6 6
6 5 4 23 49 43 17 7 8 7 6 5 5 5 4 4 5 7 6 5 3 2 2 2 2 3 3 3 4 5 6 4 6 6 3 3 5 4 3 6 9 8 6 3 2 2 2 3 2 1 2 3 4 3 2 2 2 1 3 2 4 4 3 4 5 2 2 3 2 2 5 5 1 1 2 3 3 3 4 7 7 6 6 6 8 8 7 6
4 3 2 16 40 34 13 8 11 11 9 5 6 8 4 2 6 9 10 10 6 4 4 3 3 3 2 3 4 5 6 4 4 5 2 3 3 1 0 6 8 6 3 3 4 5 3 3 3 2 1 3 4 2 1 1 0 3 3 2 3 4 4 2 1 1 2 4 6 3 8 6 2 1 1 3 2 0 3 5 5 5 5 6 7 7 6 5
4 2 2 9 21 16 6 6 9 10 11 9 11 12 6 3 5 8 11 11 6 5 5 3 3 4 3 3 3 3 4 3 2 3 2 2 2 2 2 1 3 4 2 1 5 6 4 3 4 5 6 6 4 3 3 2 2 2 2 3 4 6 7 4 2 3 5 4 6 6 9 4 3 2 1 3 4 2 2 2 3 4 5 6 6 6 6 7
4 2 1 4 6 5 2 1 4 7 11 12 9 10 12 9 2 2 8 9 6 6 4 1 3 3 2 4 5 4 6 3 2 3 3 3 3 2 2 2 1 1 2 3 5 6 3 1 4 7 9 8 5 4 4 4 4 4 5 6 6 6 8 6 3 4 5 3 5 11 7 2 4 3 2 3 2 2 3 2 4 5 5 5 5 6 6 7
2 2 4 4 2 4 3 1 3 5 8 12 7 5 13 13 4 2 6 6 6 8 4 1 4 5 5 7 7 5 7 5 3 3 3 3 2 2 2 2 3 2 2 3 1 3 4 3 7 9 11 8 4 4 4 5 5 7 7 8 8 7 8 8 6 6 5 3 9 11 4 3 9 6 4 6 5 4 4 5 7 7 6 5 4 5 6 7
0 1 2 1 1 5 6 5 6 3 5 10 6 3 9 13 10 7 5 2 4 8 5 2 5 10 10 10 8 5 7 7 7 6 4 3 3 1 2 1 1 2 2 2 2 2 4 5 6 7 9 8 4 4 5 5 4 5 7 10 11 9 10 11 11 9 8 7 13 9 5 7 9 4 6 8 5 5 6 6 5 4 4 5 5 5 7 8
1 1 1 2 1 2 3 3 7 5 6 7 4 3 7 13 15 10 4 3 4 7 9 8 10 11 10 10 8 6 7 8 8 8 7 5 5 4 2 1 1 2 3 3 1 1 3 3 4 6 6 8 4 4 6 6 4 4 8 12 10 9 11 12 11 9 8 11 12 6 3 8 7 4 6 6 4 4 4 1 3 3 4 5 6 7 8 8
1 0 0 1 1 1 2 3 5 6 5 5 4 4 4 8 12 8 3 5 8 6 9 13 13 12 11 10 9 10 13 13 11 9 9 8 6 5 4 4 3 2 2 2 1 1 2 2 2 4 4 7 4 4 5 5 5 7 13 12 6 6 9 8 5 3 4 8 9 4 7 11 5 4 5 5 4 4 5 4 3 4 5 5 6 8 8 8
2 1 0 2 1 1 1 1 3 4 5 5 6 5 4 7 9 5 1 3 6 6 9 14 12 7 7 9 12 15 15 11 7 6 8 9 7 4 3 3 5 5 2 2 1 1 3 1 2 2 4 7 4 5 6 4 2 8 17 12 8 8 9 5 5 6 7 8 7 6 9 10 4 4 3 6 5 5 7 7 6 6 6 6 7 8 8 7
2 3 2 2 2 2 1 1 1 4 4 4 6 5 6 7 5 4 2 2 1 2 4 9 9 5 5 11 16 13 6 5 5 3 3 3 2 2 2 3 6 6 5 4 2 2 4 4 2 3 5 5 2 5 6 4 1 9 14 12 13 13 8 3 3 8 10 8 7 8 8 5 2 4 4 6 6 6 7 7 6 7 6 6 8 8 7 7
Wind_Direction
249 235 236 227 230 248 245 254 252 205 167 183 97 83 64 313 288 311 317 325 326 324 325 324 331 336 337 338 337 337 334 331 326 317 307 306 263 199 203 231 161 156 165 165 167 155 91 45 20 22 41 42 14 348 9 19 62 53 80 90 74 184 181 178 185 190 162 277 279 328 36 74 304 310 332 333 34 2 339 301 293 316 289 259 350 2 5 11
275 268 259 234 218 257 261 258 233 154 152 152 101 94 118 178 268 309 315 323 321 316 320 322 331 335 337 339 337 338 334 329 324 319 319 310 198 185 197 184 156 152 160 165 171 142 106 54 11 38 45 39 348 343 19 9 58 81 115 82 235 205 206 192 182 192 188 233 257 297 359 92 246 252 358 333 302 333 343 299 337 336 298 333 1 6 17 29
282 279 271 242 218 241 224 198 186 165 151 136 107 94 107 274 294 312 314 314 311 312 315 319 328 332 335 335 338 341 336 333 328 332 8 73 153 166 166 162 154 152 159 152 146 103 97 120 66 53 41 48 354 348 28 8 19 127 113 73 246 216 240 237 195 207 218 228 274 293 346 328 241 218 6 54 283 312 308 278 346 321 298 336 359 14 29 38
270 273 269 247 236 233 200 206 218 198 170 143 136 107 257 289 293 300 304 305 305 308 309 316 322 326 330 331 341 341 341 352 331 328 48 101 135 156 158 150 147 156 165 145 141 101 78 93 72 56 52 43 341 2 34 345 6 122 115 167 226 193 264 248 204 222 233 210 234 288 350 313 269 172 151 142 316 308 279 240 212 271 305 337 353 19 30 35
264 270 272 252 246 240 210 212 213 192 179 179 240 268 286 291 296 299 303 304 304 305 307 313 317 320 323 328 341 340 355 26 294 303 70 129 135 148 152 142 154 167 161 140 143 106 72 74 64 52 53 33 343 23 13 317 72 118 218 187 191 149 253 257 199 225 225 139 261 293 314 293 284 101 170 158 245 268 285 280 147 49 12 27 17 24 29 32
264 263 266 254 247 236 212 206 198 192 206 219 252 277 297 297 301 304 305 307 306 308 309 313 315 316 317 323 337 348 34 57 272 292 261 202 162 151 156 168 171 175 155 131 133 105 72 54 55 62 50 35 9 48 335 316 47 150 277 260 217 176 221 257 181 216 177 103 265 246 281 307 41 313 207 179 228 235 9 57 94 73 72 68 49 40 31 29
269 263 259 248 241 229 210 207 200 202 218 229 252 275 296 304 308 305 307 308 307 309 311 316 317 313 313 316 325 18 74 249 274 275 258 227 196 181 170 191 179 186 176 134 118 108 89 69 78 126 84 40 191 146 64 343 41 108 258 299 268 186 216 245 185 208 190 231 252 254 323 305 219 290 256 205 245 79 59 71 85 77 68 62 52 43 35 31
275 266 258 245 234 218 209 213 208 214 228 243 268 282 296 308 311 306 308 307 307 310 312 316 316 315 315 298 232 18 356 249 265 266 246 222 208 194 182 203 193 202 192 171 144 134 113 106 149 149 93 304 180 146 98 7 34 114 223 273 272 219 245 267 286 261 237 241 246 291 293 252 208 225 9 272 197 88 80 66 64 69 59 51 48 38 34 31
277 268 255 244 231 214 211 212 210 219 234 258 279 288 294 309 313 311 308 307 309 309 314 318 313 314 292 144 92 26 276 237 258 262 235 223 215 204 214 225 213 208 183 187 179 153 156 169 186 178 156 197 162 140 144 179 293 206 201 255 281 292 295 301 295 278 262 249 174 257 283 279 241 187 313 279 137 111 78 57 40 54 51 42 43 36 32 30
278 273 253 239 226 214 212 205 205 220 243 262 282 296 299 312 313 309 307 307 310 307 314 311 304 313 225 153 94 94 254 233 273 263 228 218 214 210 229 246 223 206 173 168 171 156 170 193 182 151 136 139 152 135 124 153 197 193 181 263 268 300 309 309 296 305 315 279 188 223 277 295 311 17 208 232 134 134 69 56 36 53 53 38 39 33 35 33
280 275 255 240 221 208 201 199 204 223 263 279 293 303 306 313 311 308 308 306 307 308 310 292 279 231 178 138 123 208 247 241 269 274 216 204 205 217 228 239 217 199 178 158 181 181 174 181 152 119 133 161 142 73 264 197 121 136 119 300 292 323 307 284 302 300 310 288 183 183 260 297 333 101 211 147 98 112 76 62 42 56 50 37 39 32 35 32
272 271 260 241 216 202 189 197 211 255 287 294 294 302 308 308 306 305 307 306 309 313 303 278 231 184 148 104 176 224 239 225 248 264 221 199 192 204 192 178 168 184 190 164 196 202 192 179 145 116 204 154 133 38 235 212 73 89 64 325 306 350 327 291 317 300 293 262 165 155 284 302 275 205 233 117 92 89 78 63 44 55 44 38 35 31 37 28
265 267 258 237 215 203 188 196 247 286 295 291 288 299 304 306 309 309 310 310 314 319 304 280 211 177 143 308 232 232 240 239 248 248 209 184 167 158 132 141 153 163 194 180 187 187 184 184 151 124 130 116 145 190 103 46 33 317 52 39 313 352 328 284 85 355 340 110 153 131 292 286 259 241 259 205 130 84 66 51 43 47 37 37 30 35 35 26
261 261 257 240 212 199 193 215 257 288 300 287 284 300 308 312 312 312 316 314 319 320 303 223 182 159 134 252 255 251 247 242 243 230 192 173 154 134 124 128 135 137 152 152 153 147 152 161 128 103 99 85 147 137 47 14 13 315 1 42 354 340 283 283 246 313 339 4 63 104 213 273 267 274 303 281 125 94 81 55 47 44 37 35 29 40 34 28
257 259 259 238 204 191 194 209 239 287 292 280 288 309 313 316 316 321 324 318 335 342 138 146 165 140 89 276 263 253 246 237 225 211 190 179 166 145 138 132 126 124 128 129 121 108 119 134 112 96 150 359 72 99 18 351 8 26 305 307 338 196 265 306 302 184 201 340 34 99 194 280 280 286 349 36 92 100 101 79 54 52 40 38 28 38 37 27
253 257 258 233 203 194 195 194 235 281 282 281 301 312 313 317 319 328 333 353 56 101 107 140 160 134 77 270 232 230 236 225 207 199 191 190 191 174 145 132 121 122 124 113 107 101 90 92 83 89 130 50 78 94 38 353 336 358 178 252 272 210 275 321 327 313 285 30 16 56 199 283 284 260 354 32 84 100 104 92 63 55 38 43 34 34 37 27
246 253 256 235 206 192 193 196 251 274 275 282 305 309 312 315 311 319 28 101 96 95 97 144 151 123 275 216 182 248 227 192 186 184 187 188 190 171 146 127 109 115 110 91 102 99 49 47 71 330 55 71 104 102 59 311 281 304 7 240 248 216 232 302 310 338 21 86 5 355 203 262 259 179 16 14 73 100 103 95 67 55 39 38 32 37 37 32
238 251 252 232 206 199 199 196 253 272 273 286 310 309 314 315 300 160 158 137 98 72 63 147 133 97 275 198 192 234 137 154 163 164 174 170 164 160 145 127 114 107 86 55 60 77 23 25 80 56 29 54 135 120 157 231 220 200 186 215 244 232 232 259 269 300 25 26 315 277 235 264 268 284 33 5 48 95 100 97 80 61 46 34 32 44 36 37
237 248 244 222 206 213 202 190 261 271 272 288 311 314 345 351 352 172 173 153 134 130 211 222 161 151 233 231 214 117 106 130 146 152 154 148 149 143 122 110 105 99 95 96 305 109 106 52 69 172 215 188 184 174 197 213 188 179 175 164 186 217 245 241 243 250 258 347 279 239 231 254 266 282 25 5 46 93 103 93 85 67 50 34 36 39 36 45
240 244 237 218 206 220 201 186 267 271 275 283 312 28 78 10 2 303 253 197 214 202 186 205 192 209 261 259 142 132 120 119 132 158 152 150 147 129 95 71 68 68 114 157 174 138 114 129 199 223 210 193 199 201 204 190 136 143 142 147 192 214 256 256 249 273 217 188 269 246 231 250 258 279 1 357 60 91 108 107 105 87 56 23 33 28 26 37
240 238 233 213 202 227 203 181 281 276 283 283 192 125 164 176 147 288 285 264 246 235 243 229 206 252 267 178 160 154 132 86 46 145 158 160 148 141 118 54 90 87 212 160 144 65 91 168 225 232 204 189 204 206 205 163 110 116 152 187 241 222 249 264 247 297 344 177 272 299 257 262 257 291 355 350 80 103 156 144 140 114 76 21 29 20 9 6
235 235 228 205 206 227 200 183 275 273 286 288 224 183 199 196 169 209 114 291 271 242 236 242 239 264 255 190 182 164 125 189 310 229 174 156 141 177 189 87 137 180 197 131 117 74 96 218 237 230 153 132 133 174 185 198 163 133 140 180 260 234 265 289 294 338 14 174 272 308 245 266 266 80 24 359 94 109 309 118 125 127 118 55 36 19 13 6
228 232 222 202 215 223 192 199 254 267 280 278 250 208 200 202 140 132 118 275 290 263 216 215 213 237 232 225 198 167 175 209 211 242 187 156 133 190 148 127 159 148 149 178 159 147 184 245 242 193 135 137 116 124 141 146 168 184 169 185 248 233 75 282 303 345 355 185 278 204 228 271 269 88 40 11 84 74 41 69 75 89 121 109 63 19 28 17
223 228 216 204 217 212 187 221 244 258 268 266 251 224 181 99 148 149 111 333 288 279 237 210 196 212 209 210 185 173 203 212 182 218 184 161 138 155 164 158 147 143 196 198 174 181 222 243 204 120 132 164 179 146 136 143 217 237 212 208 230 221 208 231 285 327 327 350 6 140 303 289 259 241 233 30 69 74 52 72 71 53 79 97 73 40 31 17
219 224 213 209 215 200 194 226 239 246 250 257 250 226 198 177 156 142 71 14 286 290 284 221 202 212 189 148 162 170 176 228 216 208 176 168 151 136 190 161 141 199 204 172 171 218 247 236 123 108 117 157 180 196 173 167 201 280 233 213 222 222 220 231 332 352 358 342 332 77 297 289 298 276 217 170 142 96 44 67 95 51 47 73 70 46 22 9
221 224 213 210 207 192 194 222 234 231 227 240 244 210 192 177 155 150 86 37 277 267 255 198 181 183 171 137 153 145 83 268 252 119 158 174 164 125 157 158 91 212 179 143 168 221 256 260 130 152 154 152 183 231 217 169 145 285 253 210 212 204 197 198 148 80 312 271 313 49 219 267 319 314 244 148 139 72 16 14 197 245 64 107 93 46 10 2
231 227 216 211 201 194 196 205 204 190 183 231 212 181 182 169 164 177 71 5 274 200 140 218 189 152 165 173 157 139 180 254 89 74 129 160 176 87 132 181 138 203 169 127 207 233 200 144 95 148 148 160 198 240 215 161 134 233 253 158 162 169 181 183 162 178 231 259 321 15 155 264 290 287 330 95 109 319 282 240 248 240 223 201 197 238 241 276
230 229 221 208 198 201 206 180 179 179 180 200 174 171 171 161 174 140 77 280 272 108 113 239 86 95 125 91 79 116 196 292 104 226 349 89 166 59 127 205 172 174 173 141 210 259 150 168 184 161 148 185 208 215 183 158 152 233 194 118 128 148 158 144 135 174 276 22 308 303 105 269 268 272 359 55 294 274 243 214 228 225 218 212 211 228 231 239
225 227 221 204 202 211 215 209 185 190 210 161 157 166 159 157 164 71 86 233 249 97 96 123 130 51 68 105 55 66 56 28 108 251 359 83 80 59 149 205 147 141 109 132 211 253 102 222 200 153 159 204 202 207 178 165 185 199 134 99 83 84 92 91 112 128 63 53 250 247 190 217 272 282 343 58 265 260 222 196 219 215 213 216 215 223 221 224
222 224 215 202 209 217 211 215 213 199 183 164 159 155 148 147 96 83 213 233 139 131 132 111 166 141 121 136 173 1 83 29 24 23 24 79 24 33 123 154 96 119 31 8 269 256 327 304 191 145 178 189 146 99 159 155 153 145 111 71 52 40 45 48 66 93 72 275 248 237 201 191 266 278 224 200 230 216 153 174 217 210 211 215 216 218 212 203
220 221 211 203 213 212 199 205 212 202 175 168 159 141 136 87 58 158 222 241 79 149 131 139 185 139 146 152 169 171 108 37 14 105 108 118 49 45 89 130 84 80 7 336 299 305 334 336 262 227 168 129 102 69 38 73 110 114 96 83 74 350 12 26 359 47 136 253 258 269 242 183 230 259 239 227 234 206 167 183 196 195 204 209 210 212 204 196
219 220 209 206 215 211 198 200 203 197 177 167 159 136 123 88 193 215 229 13 199 202 162 172 186 165 164 140 123 156 132 124 176 135 141 144 160 174 172 173 155 87 333 245 251 334 302 239 258 293 198 140 113 84 39 27 65 96 101 104 100 342 358 354 311 249 224 247 259 308 320 213 230 240 233 224 218 219 223 214 196 191 194 198 205 205 193 189
218 218 209 210 217 213 206 204 198 193 177 162 153 99 94 169 221 218 208 205 214 191 134 119 117 133 143 130 158 170 130 167 181 150 145 123 157 214 250 193 158 130 152 198 184 345 288 287 284 160 251 187 152 149 159 169 151 148 144 133 130 122 129 265 268 261 262 258 265 288 251 244 263 246 223 222 219 228 245 252 225 199 193 195 197 192 184 191
215 216 211 213 219 218 212 204 194 190 178 157 144 111 141 210 228 186 192 213 215 62 76 99 96 106 143 171 213 178 145 206 175 138 134 124 146 217 239 226 178 125 103 134 173 174 197 293 218 176 227 191 178 185 161 143 147 177 162 136 145 156 171 214 216 213 252 281 294 275 205 201 223 220 221 237 264 275 262 251 230 207 198 187 175 173 188 201
213 214 214 216 219 221 215 204 193 188 176 153 142 161 183 219 228 157 187 199 167 73 48 79 106 120 188 253 264 202 180 206 166 132 152 164 176 200 199 206 195 156 133 157 210 164 161 263 255 229 285 173 181 198 116 112 123 212 134 110 163 186 154 160 193 173 180 306 297 218 217 223 196 217 280 288 304 316 319 282 194 187 179 163 174 192 202 210
209 209 214 217 217 216 210 199 189 183 173 154 170 194 208 221 208 168 191 172 164 146 111 82 94 128 213 255 247 229 219 157 153 146 186 194 208 209 196 210 194 180 170 162 192 159 133 272 289 0 356 168 188 207 112 123 176 164 134 173 215 184 123 111 266 91 94 271 271 195 246 284 328 305 313 354 326 309 327 334 169 174 168 172 196 205 206 211
203 204 211 216 215 211 204 192 181 178 175 173 195 202 217 221 188 173 194 151 146 140 134 177 188 162 196 207 207 211 193 141 161 164 193 200 221 200 195 239 192 187 196 167 193 198 144 262 289 91 165 278 278 131 63 30 125 124 180 211 193 121 96 101 242 344 58 242 271 221 238 268 266 264 318 7 306 270 252 222 171 173 180 191 206 208 209 213
201 202 214 219 213 207 202 192 180 176 179 203 212 218 215 205 187 165 166 137 132 147 163 201 200 176 185 191 199 187 177 187 175 173 182 196 243 191 174 208 191 193 200 160 136 231 135 220 292 73 177 278 357 100 71 359 60 122 189 188 115 132 155 110 171 222 216 242 273 272 260 256 214 216 229 223 237 230 208 193 189 193 195 201 207 208 210 211
197 198 229 221 211 206 200 192 182 176 195 200 213 227 207 181 199 177 164 148 131 165 190 203 192 169 176 179 172 169 180 183 167 175 184 184 232 201 170 185 190 201 200 159 164 216 124 173 271 306 219 224 34 114 176 233 26 62 83 85 63 151 168 160 167 172 190 236 265 275 282 276 224 194 182 202 218 203 179 186 205 206 202 202 205 204 205 205
189 199 244 210 204 201 194 189 183 183 209 204 212 221 178 131 201 196 160 151 142 183 202 202 179 166 172 178 173 170 179 178 170 183 208 185 198 216 200 183 154 175 178 156 176 175 113 171 228 292 298 163 180 213 191 183 171 133 145 173 209 131 119 205 231 137 145 192 231 259 270 269 253 184 181 210 235 193 185 195 205 206 204 208 208 203 203 204
183 217 244 184 190 190 184 182 192 197 205 215 222 226 205 128 171 186 138 126 140 172 161 184 186 175 168 171 191 183 166 172 180 184 210 201 183 203 209 180 152 149 128 136 185 189 158 167 172 183 187 186 225 247 201 188 180 167 182 190 186 167 134 206 251 208 136 189 198 222 263 266 252 165 185 240 262 212 203 202 203 206 207 210 212 208 207 208
184 218 180 167 179 178 173 191 208 194 212 216 218 224 196 140 168 188 173 119 115 133 128 176 198 168 171 175 176 173 162 170 192 189 201 201 188 197 204 164 151 151 135 131 185 189 147 125 141 192 209 213 243 282 157 191 172 150 196 191 174 174 162 189 230 225 157 230 152 111 266 272 253 168 220 244 251 246 218 200 205 215 210 210 215 217 219 216
189 203 138 165 174 170 166 216 200 196 226 203 191 202 175 166 182 185 192 187 166 153 164 211 222 197 203 184 145 163 177 176 187 191 202 197 198 228 212 159 151 149 139 134 162 162 140 129 144 251 297 307 309 336 31 56 76 173 229 166 153 184 180 191 214 174 169 222 131 101 257 263 268 193 228 254 257 247 213 201 206 213 207 206 209 212 215 212
164 172 72 174 179 173 174 204 193 202 212 179 187 200 184 192 187 180 194 195 174 156 170 197 218 205 198 159 135 167 190 189 190 196 192 186 205 309 116 166 165 158 161 173 163 166 186 165 137 152 297 336 338 333 342 353 178 212 232 196 167 159 114 96 168 126 234 206 143 175 251 251 265 273 346 0 13 202 220 205 196 201 204 210 211 211 213 206
139 119 9 190 189 189 202 206 194 201 201 194 202 198 191 224 208 192 193 189 176 166 169 190 198 167 148 135 114 148 190 184 177 185 161 183 234 351 20 198 185 174 190 156 144 154 173 173 153 174 211 225 223 209 208 218 202 203 215 207 205 179 157 161 172 185 231 195 152 216 252 269 319 321 7 14 29 7 274 205 180 211 212 210 212 211 209 207
150 134 154 187 205 224 265 237 198 198 196 199 203 195 196 206 230 204 190 189 189 175 155 138 158 140 146 163 151 183 214 197 120 153 174 189 228 312 354 4 25 157 145 99 125 137 121 176 192 201 222 224 209 208 197 147 146 193 211 202 204 196 180 173 158 189 209 175 204 237 246 296 284 254 255 309 309 243 255 205 199 227 223 217 220 218 217 218
135 137 172 163 189 218 227 234 208 204 191 189 188 190 199 202 194 173 201 204 186 168 147 77 161 172 190 181 171 188 205 196 167 175 180 178 195 327 347 48 41 17 93 82 54 107 112 219 217 212 235 233 168 176 191 154 169 199 205 208 210 196 179 182 202 206 167 161 245 247 204 221 255 231 204 251 245 216 230 219 215 223 216 209 213 220 229 231
116 116 196 149 118 206 217 201 188 183 167 177 180 165 190 201 198 190 201 204 159 168 173 192 197 192 184 174 173 181 188 200 211 200 178 162 160 109 8 66 55 359 69 72 354 91 136 225 215 196 237 241 164 159 181 175 202 203 201 219 219 199 187 198 218 216 179 207 252 254 170 212 249 220 193 221 217 203 219 213 204 203 186 184 196 216 229 230
133 57 327 354 40 207 225 160 158 179 177 166 167 158 183 203 205 195 165 129 167 191 194 203 210 200 186 175 171 179 187 195 209 204 186 178 174 159 145 168 140 16 70 101 28 119 158 225 190 169 235 251 212 168 170 189 220 227 229 231 219 203 205 209 221 220 203 229 256 270 232 241 244 198 205 219 193 202 233 207 158 177 184 192 204 221 232 233
119 161 168 61 48 43 7 78 143 186 195 163 178 201 196 208 208 196 155 166 183 192 197 207 211 199 192 185 180 202 210 203 208 205 178 174 188 181 181 188 153 71 80 129 107 278 208 212 121 136 226 254 230 146 158 200 210 232 247 239 195 197 224 218 210 196 200 243 256 258 259 261 246 165 202 235 214 219 262 271 235 220 215 214 220 229 238 240
78 321 202 129 132 119 44 44 137 184 202 189 196 198 196 220 214 190 193 216 189 174 191 206 205 183 179 192 203 218 219 205 204 196 169 176 190 182 182 179 142 122 138 163 130 160 194 190 57 106 216 244 219 153 164 177 174 251 255 237 184 199 221 195 176 191 201 225 237 234 247 259 243 143 190 243 232 224 245 250 249 248 232 218 229 238 240 236
89 346 5 91 128 154 144 38 150 186 205 197 194 186 184 209 209 170 194 300 92 115 195 201 184 145 165 200 213 219 200 138 138 143 137 143 119 98 115 152 152 151 162 170 153 146 169 166 137 171 216 245 223 154 154 137 192 257 252 220 193 210 220 182 212 224 212 207 219 232 243 250 194 154 201 244 234 220 234 236 234 242 235 222 231 239 242 240